Location: Star Hoppers Observatory
(42.7905°N, 83.6127°W)
Time: 20:11:33
(UTC-04:00)

Daily predictions for brighter satellites

Satellite Brightness Start Highest point End
(mag) Time Altitude Azimuth Time Altitude Azimuth Time Altitude Azimuth
Cosmos 1464 Rocket 4.5 19:41:42 10° SSE 19:47:22 38° E 19:52:59 10° NNE
Cosmos 1437 2.7 19:46:55 10° N 19:50:10 63° ENE 19:53:25 10° SSE
TIMED 4.5 19:51:44 10° NNW 19:56:08 75° ENE 20:00:29 10° SSE
Cosmos 2333 Rocket 3.1 19:54:06 10° SW 19:59:45 56° WNW 20:05:26 10° NNE
Spot 2 Rocket 3.8 19:58:01 10° SE 20:02:48 46° ENE 20:07:36 10° N
Cosmos 2233 Rocket 4.3 19:56:40 10° SSW 20:02:57 77° W 20:09:19 10° N
Cosmos 1076 Rocket 3.9 19:59:00 10° N 20:03:06 41° ENE 20:07:12 10° SSE
NOSS 3-2 (C) 3.8 19:57:49 10° S 20:03:31 45° ESE 20:09:42 10° NE
CENTAUR R/B 4.1 20:02:54 10° ESE 20:04:17 11° ESE 20:05:41 10° E
Cosmos 2056 Rocket 3.6 19:59:57 10° NNW 20:05:25 90° ENE 20:10:50 10° SSE
Helios 1B rocket 3.0 20:02:09 10° NNE 20:05:54 34° E 20:09:39 10° SSE
Cosmos-2242 4.0 20:05:20 10° SSE 20:08:59 27° E 20:12:41 10° NNE
Cosmos 1484 Rocket 4.0 20:06:38 10° S 20:10:19 46° W 20:14:06 10° NNW
In-Cosmos 22 4.5 20:08:08 10° N 20:13:45 51° ENE 20:19:20 10° SSE
Cosmos 1674 4.4 20:13:36 10° NNE 20:16:03 16° ENE 20:16:58 15° E
NOAA 12 4.1 20:11:53 10° SSE 20:17:08 89° W 20:22:27 10° NNW
Atlas Centaur 2 4.4 20:11:39 10° WSW 20:18:41 29° SSW 20:25:20 10° SE
Cosmos 1408 Rocket 3.6 20:16:40 10° N 20:21:00 57° E 20:25:14 10° SSE
Cosmos 2237 Rocket 3.6 20:20:19 10° SW 20:25:41 42° WNW 20:31:04 10° NNE
Cosmos 1346 4.1 20:25:14 10° NNE 20:27:46 24° ENE 20:28:07 24° E
ATLAS CENTAUR R/B 3.1 20:24:21 10° NW 20:28:06 33° WSW 20:31:37 10° S
Cosmos 1766 3.6 20:26:21 10° SSW 20:30:17 71° W 20:34:17 10° N
Aureole 2 Rocket 3.3 20:26:03 10° SSW 20:30:26 71° WNW 20:34:44 10° NNE
Resurs 01 Rocket 1.6 20:28:30 10° SSE 20:32:58 86° ENE 20:37:27 10° NNW
ATLAS 5 CENTAUR R/B 1.9 20:28:41 10° SSW 20:33:20 57° ESE 20:38:24 10° NE
HJ-1C 3.4 20:30:17 10° SSE 20:33:39 85° WSW 20:37:02 10° NNW
Resurs 1-3 3.5 20:30:12 10° SSE 20:34:33 69° ENE 20:38:56 10° N
USA 215 3.2 20:33:11 10° NE 20:39:45 80° SE 20:46:17 10° SW
Meteor 1-29 2.9 20:40:50 10° NNE 20:44:22 82° E 20:47:52 10° S
SL-16 R/B 2.7 20:39:16 10° SW 20:44:54 64° WNW 20:50:35 10° NNE
CZ-2D R/B 3.5 20:43:00 23° SE 20:45:07 47° ENE 20:48:52 10° N
Cosmos 1743 Rocket 3.7 20:44:11 10° N 20:48:34 54° E 20:51:26 20° SSE
Cosmos 1953 2.2 20:47:17 10° S 20:51:17 89° NW 20:55:17 10° N
ERS-1 Rocket 4.0 20:54:53 26° ENE 20:55:20 26° ENE 20:59:28 10° N
Nadezhda 4 Rocket 3.9 20:50:10 10° N 20:56:28 71° E 21:02:40 10° SSE
Helios 1A 3.6 20:53:15 10° S 20:57:21 55° W 21:01:29 10° NNW
SeaSat 1 2.8 20:54:39 10° NE 20:59:20 41° ESE 21:03:59 10° S
BREEZE-M DEB (TANK) 4.0 20:45:16 10° W 20:59:53 69° N 21:02:28 29° ENE
GP-B 3.6 20:57:23 10° NNE 21:01:21 37° E 21:01:21 37° E
Cosmos 1452 Rocket 3.8 20:56:51 10° NNW 21:02:05 68° WSW 21:07:17 10° S
Cosmos 1805 3.6 20:58:18 10° SSW 21:02:12 67° W 21:06:09 10° N
Cosmos 1092 Rocket 4.0 20:56:18 10° N 21:02:27 58° E 21:06:37 21° SSE
H-2A R/B 2.6 21:01:10 31° SSE 21:02:58 77° ENE 21:06:52 10° N
Cosmos 1544 3.0 21:01:19 10° S 21:05:03 89° E 21:08:50 10° N
CZ-4B DEB 3.1 21:06:22 31° S 21:07:44 65° W 21:11:00 10° NNW
ALOS 2.4 21:04:23 10° S 21:09:02 75° WSW 21:13:44 10° NNW
FENGYUN 3A 3.8 21:07:20 10° S 21:12:41 76° WSW 21:18:06 10° NNW
OAO 3 Rocket 4.1 21:08:27 10° WSW 21:12:43 33° S 21:13:21 31° SSE
Cosmos 724 4.3 21:10:28 10° SSW 21:16:23 88° WNW 21:22:32 10° NNE
NOSS 3-2 (A) 4.3 21:10:37 10° WSW 21:16:35 52° NW 21:23:10 10° NNE
Cosmos 1634 Rocket 4.0 21:11:44 10° SSE 21:17:48 55° E 21:23:50 10° NNE
Cosmos 2026 Rocket 4.2 21:12:15 10° N 21:18:01 43° ENE 21:18:46 41° E
Cosmos 1470 3.1 21:24:32 52° NNE 21:24:32 52° NNE 21:27:33 10° N
CZ-4C R/B 4.5 21:19:20 10° W 21:23:45 23° NNW 21:28:37 10° NNE
Cosmos 1420 Rocket 4.1 21:19:53 10° NNW 21:25:12 76° WSW 21:27:35 33° S
Cosmos 2369 Rocket 2.2 21:22:40 10° NNW 21:28:15 57° ENE 21:28:54 54° E
H-2A R/B 4.1 21:31:47 17° NNE 21:31:47 17° NNE 21:33:17 10° NNE
Cosmos 1603 4.0 21:26:22 10° SSW 21:32:04 70° WNW 21:37:51 10° NNE
Cosmos 1943 Rocket 3.2 21:30:52 10° N 21:35:15 30° NE 21:35:15 30° NE
Cosmos 2195 Rocket 4.4 21:33:21 10° N 21:39:41 73° E 21:41:05 55° SE
Cosmos 1269 Rocket 4.3 21:35:35 10° SSW 21:40:49 65° WNW 21:46:06 10° NNE
ASTEX 1 4.3 21:39:30 10° N 21:44:13 47° WNW 21:48:53 10° SSW
Cosmos 1048 Rocket 4.2 21:39:50 10° SSW 21:45:08 70° WNW 21:50:23 10° NNE
Cosmos 1674 4.1 21:48:16 10° NNW 21:51:50 36° W 21:51:56 36° W
Envisat 3.2 21:53:17 60° NNE 21:53:17 60° NNE 21:57:31 10° N
CENTAUR R/B 2.3 21:47:26 10° SSW 21:59:44 12° NE 22:00:15 10° NE
Exosat Rocket 4.4 21:47:12 10° NNW 21:53:48 75° ENE 21:55:51 54° SE
Meteor 1-11 4.2 21:49:42 10° N 21:55:14 75° NE 21:55:14 75° NE
Cosmos 1627 Rocket 4.5 21:55:58 10° N 22:02:11 78° W 22:03:14 62° SSW
Cosmos 2151 4.3 21:58:01 10° NNW 22:00:39 36° NNW 22:00:39 36° NNW
ATLAS 5 CENTAUR R/B 3.9 22:14:20 10° W 22:18:25 25° NW 22:22:49 10° NNE
USA 215 4.3 22:17:38 16° NE 22:22:25 40° NNW 22:28:24 10° W
ERS-1 Rocket 4.4 22:34:54 35° WNW 22:34:54 35° WNW 22:38:37 10° NNW
SeaSat 1 4.2 22:32:27 10° N 22:36:42 30° NW 22:40:56 10° WSW
Cosmos 2369 Rocket 4.3 23:07:40 10° NW 23:10:43 20° W 23:10:43 20° W
Cosmos 1943 Rocket 4.2 23:14:26 10° NW 23:16:47 24° NW 23:16:47 24° NW
CENTAUR R/B 4.4 23:39:20 10° W 23:46:45 26° N 23:50:54 10° NNE
